WAT1772 OMDB-OMAA

Flight info

Callsign WAT1772
Flight time N/A
Altitude 10000
Route EMERU
Aircraft CRJ7/M-SDFGIRWY/S

Departure

Time 2026-04-22 10:04
Airport Dubai International Airport (OMDB)

Arrival

Time N/A
Airport Zayed International Airport (OMAA)
Time Latitude Longitude Altitude Speed Heading
2026-04-22 09:42 25.24257 55.37186 34 ft 0 kts 30°
2026-04-22 09:49 25.24245 55.37178 34 ft 2 kts 30°
2026-04-22 09:49 25.24236 55.37172 34 ft 2 kts 29°
2026-04-22 09:50 25.24223 55.37165 34 ft 2 kts 19°
2026-04-22 09:50 25.24209 55.37161 34 ft 2 kts
2026-04-22 09:50 25.24194 55.37159 34 ft 2 kts
2026-04-22 09:50 25.24179 55.37159 34 ft 2 kts 352°
2026-04-22 09:51 25.24165 55.37162 34 ft 2 kts 342°
2026-04-22 09:51 25.24151 55.37168 34 ft 2 kts 333°
2026-04-22 09:51 25.24138 55.37177 34 ft 2 kts 324°
2026-04-22 09:51 25.24126 55.37187 34 ft 2 kts 315°
2026-04-22 09:52 25.24123 55.37190 34 ft 2 kts 313°
2026-04-22 09:52 25.24116 55.37198 34 ft 2 kts 306°
2026-04-22 09:52 25.24111 55.37208 34 ft 1 kts 301°
2026-04-22 09:52 25.24110 55.37208 34 ft 0 kts 301°
2026-04-22 09:57 25.24112 55.37205 34 ft 4 kts 302°
2026-04-22 09:57 25.24127 55.37208 34 ft 2 kts 62°
2026-04-22 09:57 25.24110 55.37235 34 ft 7 kts 131°
2026-04-22 09:58 25.24059 55.37300 34 ft 8 kts 124°
2026-04-22 09:58 25.24041 55.37332 34 ft 1 kts 121°
2026-04-22 09:58 25.24026 55.37360 34 ft 9 kts 121°
2026-04-22 09:58 25.23980 55.37449 34 ft 12 kts 110°
2026-04-22 09:59 25.23973 55.37512 34 ft 4 kts 82°
2026-04-22 09:59 25.23979 55.37539 34 ft 4 kts 69°
2026-04-22 09:59 25.23998 55.37576 34 ft 5 kts 52°
2026-04-22 09:59 25.24033 55.37610 34 ft 6 kts 34°
2026-04-22 10:00 25.24058 55.37629 34 ft 5 kts 30°
2026-04-22 10:00 25.24135 55.37680 34 ft 16 kts 31°
2026-04-22 10:00 25.24211 55.37732 34 ft 8 kts 32°
2026-04-22 10:00 25.24239 55.37751 34 ft 1 kts 32°
2026-04-22 10:01 25.24237 55.37791 34 ft 5 kts 121°
2026-04-22 10:01 25.24227 55.37807 34 ft 1 kts 127°
2026-04-22 10:01 25.24206 55.37841 34 ft 8 kts 123°
2026-04-22 10:01 25.24161 55.37923 34 ft 15 kts 118°
2026-04-22 10:02 25.24107 55.38048 34 ft 2 kts 88°
2026-04-22 10:02 25.24110 55.38059 34 ft 2 kts 65°
2026-04-22 10:02 25.24160 55.38079 34 ft 12 kts 342°
2026-04-22 10:02 25.24264 55.38086 34 ft 14 kts 29°
2026-04-22 10:03 25.24282 55.38097 34 ft 0 kts 27°
2026-04-22 10:03 25.24286 55.38100 34 ft 2 kts 26°
2026-04-22 10:03 25.24312 55.38110 34 ft 8 kts
2026-04-22 10:04 25.24381 55.38060 34 ft 17 kts 302°
2026-04-22 10:04 25.24589 55.37687 34 ft 119 kts 301°
2026-04-22 10:04 25.25230 55.36518 218 ft 220 kts 305°
2026-04-22 10:04 25.26137 55.34894 1006 ft 276 kts 307°
2026-04-22 10:05 25.27203 55.33189 2076 ft 270 kts 308°
2026-04-22 10:05 25.28226 55.31559 3572 ft 259 kts 307°
2026-04-22 10:05 25.28807 55.29695 4818 ft 263 kts 272°
2026-04-22 10:05 25.28506 55.27759 6071 ft 259 kts 253°
2026-04-22 10:06 25.27914 55.25900 7327 ft 266 kts 247°
2026-04-22 10:06 25.27189 55.23996 8600 ft 276 kts 244°
2026-04-22 10:06 25.26380 55.22019 9455 ft 306 kts 243°
2026-04-22 10:06 25.25418 55.19741 9518 ft 343 kts 243°